Overview Statistics Trail Chart Weather Telemetry Raw packets
 

This is the latest recevied weather packets stored in our database for station/object KE5QKR. If no packets are shown the sender has not sent any weather packets the latest 10 day(s).

<< 81 82 83 84 85 86 87 >>
Time Temp. Humidity Pressure Rain* Wind** Luminosity Snow
1777376905 20.56° C 99% 1016 hPa 0 mm - 19 W/m² -
1777376601 20.56° C 99% 1015.9 hPa 0 mm - 13 W/m² -
1777376299 20° C 99% 1015.7 hPa 0 mm - 9 W/m² -
1777375994 20° C 99% 1015.8 hPa 0 mm - 6 W/m² -
1777375693 20° C 99% 1015.6 hPa 0 mm - 4 W/m² -
1777375388 20° C 99% 1015.4 hPa 0 mm - 3 W/m² -
1777375086 19.44° C 99% 1015.3 hPa 0 mm - 2 W/m² -
1777374779 19.44° C 99% 1015.2 hPa 0 mm - 1 W/m² -
1777374476 20° C 99% 1015.6 hPa 0 mm - 0 W/m² -
1777374174 19.44° C 99% 1015.2 hPa 0 mm - 0 W/m² -
1777373869 19.44° C 99% 1015.1 hPa 0 mm - 0 W/m² -
1777373566 19.44° C 99% 1014.9 hPa 0 mm - 0 W/m² -
1777373262 19.44° C 99% 1015 hPa 0 mm - 0 W/m² -
1777372958 18.89° C 99% 1015.1 hPa 0 mm - 0 W/m² -
1777372653 18.89° C 99% 1015.2 hPa 0 mm - 0 W/m² -
1777372353 19.44° C 99% 1014.9 hPa 0 mm - 0 W/m² -
1777372051 19.44° C 99% 1015 hPa 0 mm - 0 W/m² -
1777371747 19.44° C 99% 1014.8 hPa 0 mm - 0 W/m² -
1777371444 19.44° C 99% 1014.5 hPa 0 mm - 0 W/m² -
1777371140 19.44° C 99% 1014.5 hPa 0 mm - 0 W/m² -
1777370837 18.89° C 99% 1014.7 hPa 0 mm - 0 W/m² -
1777370533 18.89° C 99% 1014.5 hPa 0 mm - 0 W/m² -
1777370229 18.89° C 99% 1014.5 hPa 0 mm - 0 W/m² -
1777369925 18.89° C 99% 1014.3 hPa 0 mm - 0 W/m² -
1777369621 18.89° C 99% 1014.3 hPa 0 mm - 0 W/m² -

* Rain latest hour (hover to see other rain measurements)
** Current wind speed in m/s (hover to see current wind gust speed)